Location: Six Mile Lake
(44.9000°N, 79.7170°W)
Time: 03:18:40
(UTC-04:00)

AO-92 - Pass Details

Date: 05 July 2022
Orbit: 469 x 481 km, 97.4° (Epoch: 17 August)

Event Time Altitude Azimuth Distance (km) Brightness Sun altitude
Exits shadow 23:20:21 39° 167° (SSE) 732 ? -16.8°
Maximum altitude 23:21:35 90° 24° (NNE) 487 ? -16.9°
Drops below altitude 10° 23:25:11 10° 348° (NNW) 1,672 ? -17.2°
Sets 23:27:16 0° 348° (NNW) 2,559 ? -17.4°
